| time (UTC) | temp F | wind direction | speed MPH | gust MPH | rain 1hr in | rain 24hr in | rain mn in | humidity % | barometer mb |
| 20260901102839 | 63 | 182 | 3.0 | 9.0 | 0.00 | 0.06 | 0.01 | 86 | 1017.4 |
| 20260901101836 | 64 | 163 | 1.0 | 11.0 | 0.00 | 0.06 | 0.01 | 83 | 1017.3 |
| 20260901100835 | 65 | 60 | 1.0 | 9.0 | 0.00 | 0.06 | 0.01 | 81 | 1017.0 |
| 20260901095836 | 65 | 209 | 3.0 | 9.0 | 0.00 | 0.06 | 0.01 | 80 | 1017.0 |
| 20260901094836 | 66 | 273 | 1.0 | 11.0 | 0.00 | 0.06 | 0.01 | 79 | 1017.0 |
| 20260901093835 | 68 | 253 | 1.0 | 14.0 | 0.00 | 0.06 | 0.01 | 78 | 1016.9 |
| 20260901091850 | 65 | 59 | 3.0 | 13.0 | 0.00 | 0.06 | 0.01 | 81 | 1016.8 |
| 20260901090838 | 64 | 10 | 7.0 | 11.0 | 0.00 | 0.06 | 0.01 | 81 | 1016.8 |
| 20260901083837 | 67 | 143 | 3.0 | 14.0 | 0.00 | 0.06 | 0.01 | 79 | 1016.4 |
| 20260901082836 | 66 | 192 | 4.0 | 8.0 | 0.00 | 0.06 | 0.01 | 80 | 1016.3 |
| 20260901081838 | 65 | 254 | 6.0 | 8.0 | 0.00 | 0.06 | 0.01 | 82 | 1016.4 |
| 20260901080837 | 67 | 226 | 2.0 | 9.0 | 0.00 | 0.06 | 0.01 | 81 | 1016.7 |
| 20260901074837 | 64 | 139 | 3.0 | 13.0 | 0.00 | 0.06 | 0.01 | 84 | 1016.6 |
| 20260901072837 | 64 | 146 | 0.0 | 11.0 | 0.00 | 0.06 | 0.01 | 85 | 1016.6 |
| 20260901071841 | 64 | 201 | 2.0 | 9.0 | 0.00 | 0.06 | 0.01 | 85 | 1016.4 |
| 20260901070838 | 63 | 195 | 4.0 | 10.0 | 0.00 | 0.06 | 0.01 | 86 | 1016.4 |
| 20260901065839 | 63 | 174 | 3.0 | 7.0 | 0.00 | 0.06 | 0.01 | 86 | 1016.2 |
| 20260901064839 | 63 | 191 | 6.0 | 9.0 | 0.00 | 0.06 | 0.01 | 86 | 1016.1 |
| 20260901063831 | 63 | 221 | 3.0 | 8.0 | 0.00 | 0.06 | 0.01 | 87 | 1015.9 |
| 20260901062830 | 62 | 153 | 4.0 | 7.0 | 0.00 | 0.06 | 0.01 | 88 | 1015.8 |
| 20260901061830 | 62 | 171 | 2.0 | 7.0 | 0.00 | 0.06 | 0.01 | 90 | 1016.0 |
| 20260901055830 | 61 | 184 | 2.0 | 7.0 | 0.00 | 0.06 | 0.01 | 91 | 1015.9 |
| 20260901054833 | 61 | 248 | 2.0 | 7.0 | 0.00 | 0.06 | 0.01 | 91 | 1015.8 |
| 20260901053830 | 60 | 159 | 0.0 | 6.0 | 0.00 | 0.06 | 0.01 | 92 | 1015.7 |
| 20260901052831 | 59 | 205 | 1.0 | 6.0 | 0.00 | 0.06 | 0.01 | 94 | 1015.4 |
| 20260901044818 | 57 | 164 | 1.0 | 1.0 | 0.00 | 0.06 | 0.01 | 98 | 1015.1 |
| 20260901042833 | 56 | 148 | 0.0 | 1.0 | 0.00 | 0.06 | 0.01 | 98 | 1015.1 |
| 20260901041817 | 56 | 129 | 0.0 | 1.0 | 0.00 | 0.06 | 0.01 | 97 | 1015.1 |
| 20260901040822 | 56 | 102 | 0.0 | 2.0 | 0.00 | 0.06 | 0.01 | 97 | 1014.8 |
| 20260901035824 | 56 | 161 | 0.0 | 2.0 | 0.00 | 0.06 | 0.01 | 97 | 1014.6 |
| 20260901033818 | 56 | 126 | 0.0 | 3.0 | 0.00 | 0.06 | 0.01 | 99 | 1014.7 |
| 20260901031825 | 56 | 137 | 0.0 | 1.0 | 0.00 | 0.06 | 0.01 | 99 | 1014.4 |
| 20260901030818 | 56 | 144 | 0.0 | 0.0 | 0.00 | 0.06 | 0.01 | 98 | 1014.0 |
| 20260901025820 | 56 | 139 | 0.0 | 0.0 | 0.00 | 0.06 | 0.01 | 97 | 1014.3 |
| 20260901024821 | 57 | 140 | 0.0 | 0.0 | 0.00 | 0.06 | 0.01 | 97 | 1014.2 |
| 20260901023823 | 58 | 144 | 0.0 | 1.0 | 0.01 | 0.06 | 0.01 | 96 | 1014.3 |
| 20260901022820 | 59 | 132 | 0.0 | 2.0 | 0.01 | 0.06 | 0.01 | 96 | 1014.6 |
| 20260901021818 | 59 | 332 | 0.0 | 2.0 | 0.01 | 0.06 | 0.01 | 96 | 1014.1 |
| 20260901015819 | 59 | 188 | 1.0 | 2.0 | 0.01 | 0.05 | 0.01 | 97 | 1014.3 |
| 20260901014823 | 59 | 106 | 0.0 | 3.0 | 0.01 | 0.05 | 0.01 | 96 | 1014.2 |
| 20260901013823 | 59 | 260 | 2.0 | 3.0 | 0.00 | 0.05 | 0.00 | 97 | 1014.0 |
| 20260901005821 | 61 | 148 | 0.0 | 3.0 | 0.00 | 0.05 | 0.00 | 97 | 1014.2 |
| 20260901004822 | 61 | 148 | 2.0 | 3.0 | 0.00 | 0.05 | 0.00 | 99 | 1014.2 |
| 20260901003824 | 61 | 177 | 2.0 | 6.0 | 0.00 | 0.05 | 0.00 | 99 | 1013.9 |
| 20260901002819 | 60 | 145 | 0.0 | 2.0 | 0.00 | 0.05 | 0.00 | 99 | 1014.2 |
| 20260901001821 | 60 | 263 | 2.0 | 3.0 | 0.00 | 0.05 | 0.00 | 99 | 1014.5 |
| 20260901000818 | 60 | 140 | 0.0 | 1.0 | 0.00 | 0.05 | 0.00 | 99 | 1014.3 |
| 20260831234818 | 59 | 132 | 0.0 | 1.0 | 0.00 | 0.05 | 0.00 | 99 | 1014.3 |
| 20260831233823 | 60 | 132 | 0.0 | 0.0 | 0.00 | 0.05 | 0.00 | 99 | 1014.2 |
| 20260831232822 | 60 | 148 | 0.0 | 3.0 | 0.00 | 0.05 | 0.00 | 99 | 1014.1 |
| 20260831231818 | 60 | 139 | 0.0 | 2.0 | 0.00 | 0.05 | 0.00 | 99 | 1013.9 |
| 20260831230821 | 60 | 139 | 0.0 | 1.0 | 0.00 | 0.05 | 0.00 | 99 | 1014.4 |
| 20260831225822 | 60 | 142 | 0.0 | 2.0 | 0.00 | 0.05 | 0.00 | 99 | 1014.6 |
| 20260831224821 | 60 | 165 | 0.0 | 1.0 | 0.00 | 0.05 | 0.00 | 99 | 1014.5 |
| 20260831223822 | 60 | 147 | 0.0 | 1.0 | 0.00 | 0.05 | 0.00 | 99 | 1014.7 |
| 20260831222826 | 60 | 136 | 0.0 | 1.0 | 0.00 | 0.05 | 0.00 | 99 | 1014.7 |
| 20260831221823 | 61 | 135 | 0.0 | 1.0 | 0.00 | 0.05 | 0.00 | 99 | 1015.1 |
| 20260831214823 | 60 | 140 | 0.0 | 0.0 | 0.00 | 0.05 | 0.05 | 99 | 1014.5 |
| 20260831213818 | 59 | 130 | 0.0 | 1.0 | 0.00 | 0.05 | 0.05 | 99 | 1014.8 |
| 20260831212818 | 60 | 140 | 0.0 | 1.0 | 0.00 | 0.05 | 0.05 | 99 | 1014.4 |
| 20260831211818 | 60 | 144 | 0.0 | 0.0 | 0.00 | 0.05 | 0.05 | 99 | 1014.2 |
| 20260831203824 | 60 | 143 | 0.0 | 1.0 | 0.00 | 0.05 | 0.05 | 99 | 1014.5 |
| 20260831201821 | 60 | 127 | 0.0 | 2.0 | 0.00 | 0.05 | 0.05 | 99 | 1014.4 |
| 20260831200818 | 60 | 144 | 0.0 | 0.0 | 0.00 | 0.05 | 0.05 | 99 | 1014.7 |
| 20260831195819 | 60 | 147 | 0.0 | 0.0 | 0.00 | 0.05 | 0.05 | 99 | 1014.7 |
| 20260831194822 | 60 | 143 | 0.0 | 0.0 | 0.00 | 0.05 | 0.05 | 99 | 1014.5 |
| 20260831191818 | 61 | 143 | 0.0 | 0.0 | 0.00 | 0.05 | 0.05 | 99 | 1014.5 |
| 20260831185821 | 61 | 92 | 0.0 | 1.0 | 0.00 | 0.05 | 0.05 | 99 | 1014.4 |
| 20260831184824 | 61 | 143 | 0.0 | 0.0 | 0.00 | 0.05 | 0.05 | 99 | 1014.3 |
| 20260831182824 | 62 | 156 | 0.0 | 0.0 | 0.00 | 0.05 | 0.05 | 99 | 1014.2 |
| 20260831181818 | 62 | 148 | 0.0 | 0.0 | 0.00 | 0.05 | 0.05 | 99 | 1014.3 |
| 20260831180818 | 63 | 148 | 0.0 | 0.0 | 0.00 | 0.05 | 0.05 | 99 | 1014.1 |
| 20260831175822 | 63 | 140 | 0.0 | 0.0 | 0.00 | 0.05 | 0.05 | 98 | 1013.8 |
| 20260831173821 | 64 | 137 | 0.0 | 1.0 | 0.00 | 0.05 | 0.05 | 97 | 1013.7 |
| 20260831172820 | 64 | 139 | 0.0 | 0.0 | 0.00 | 0.05 | 0.05 | 97 | 1013.7 |
| 20260831170823 | 65 | 136 | 0.0 | 1.0 | 0.00 | 0.05 | 0.05 | 96 | 1013.7 |
| 20260831165820 | 66 | 135 | 0.0 | 1.0 | 0.00 | 0.05 | 0.05 | 95 | 1014.0 |
| 20260831164825 | 67 | 147 | 0.0 | 2.0 | 0.00 | 0.05 | 0.05 | 94 | 1014.0 |
| 20260831163823 | 67 | 147 | 0.0 | 2.0 | 0.00 | 0.05 | 0.05 | 93 | 1013.8 |
| 20260831162823 | 69 | 148 | 0.0 | 3.0 | 0.00 | 0.05 | 0.05 | 91 | 1013.6 |
| 20260831161809 | 71 | 232 | 1.0 | 3.0 | 0.00 | 0.05 | 0.05 | 87 | 1013.8 |
| 20260831160810 | 72 | 141 | 0.0 | 4.0 | 0.00 | 0.05 | 0.05 | 86 | 1013.7 |
| 20260831155811 | 72 | 184 | 2.0 | 4.0 | 0.00 | 0.05 | 0.05 | 85 | 1014.1 |
| 20260831154809 | 73 | 186 | 0.0 | 3.0 | 0.00 | 0.05 | 0.05 | 85 | 1014.2 |
| 20260831152810 | 72 | 226 | 1.0 | 4.0 | 0.00 | 0.05 | 0.05 | 87 | 1014.2 |
| 20260831151808 | 72 | 175 | 0.0 | 4.0 | 0.00 | 0.05 | 0.05 | 88 | 1014.1 |
| 20260831150811 | 72 | 267 | 0.0 | 3.0 | 0.00 | 0.05 | 0.05 | 87 | 1014.1 |
| 20260831144810 | 69 | 165 | 0.0 | 2.0 | 0.00 | 0.05 | 0.05 | 93 | 1014.1 |
| 20260831142816 | 68 | 162 | 2.0 | 3.0 | 0.00 | 0.05 | 0.05 | 95 | 1014.1 |
| 20260831140811 | 66 | 144 | 0.0 | 2.0 | 0.01 | 0.05 | 0.05 | 97 | 1014.0 |
| 20260831135809 | 66 | 161 | 0.0 | 2.0 | 0.02 | 0.03 | 0.05 | 97 | 1013.9 |
| 20260831134808 | 66 | 122 | 1.0 | 1.0 | 0.04 | 0.03 | 0.05 | 97 | 1014.1 |
| 20260831132810 | 67 | 144 | 0.0 | 0.0 | 0.05 | 0.03 | 0.05 | 96 | 1014.0 |
| 20260831131811 | 67 | 134 | 0.0 | 1.0 | 0.05 | 0.03 | 0.05 | 96 | 1013.8 |
| 20260831125809 | 66 | 156 | 0.0 | 3.0 | 0.03 | 0.00 | 0.03 | 95 | 1014.2 |
| 20260831124811 | 67 | 123 | 0.0 | 3.0 | 0.01 | 0.00 | 0.01 | 94 | 1014.2 |
| 20260831123811 | 67 | 222 | 2.0 | 4.0 | 0.00 | 0.00 | 0.00 | 93 | 1014.5 |
| 20260831122811 | 68 | 276 | 0.0 | 6.0 | 0.00 | 0.00 | 0.00 | 92 | 1014.6 |
| 20260831120813 | 71 | 173 | 4.0 | 10.0 | 0.00 | 0.00 | 0.00 | 87 | 1014.5 |
| 20260831115809 | 71 | 129 | 1.0 | 4.0 | 0.00 | 0.00 | 0.00 | 87 | 1014.3 |
| 20260831114809 | 72 | 146 | 0.0 | 7.0 | 0.00 | 0.00 | 0.00 | 85 | 1014.4 |
| 20260831113809 | 73 | 146 | 0.0 | 6.0 | 0.00 | 0.00 | 0.00 | 81 | 1014.3 |
| 20260831112821 | 73 | 141 | 0.0 | 7.0 | 0.00 | 0.00 | 0.00 | 80 | 1013.9 |
| 20260831110809 | 72 | 199 | 2.0 | 3.0 | 0.00 | 0.00 | 0.00 | 81 | 1014.0 |
| 20260831105809 | 72 | 139 | 0.0 | 1.0 | 0.00 | 0.00 | 0.00 | 84 | 1014.1 |
| 20260831104808 | 72 | 125 | 0.0 | 2.0 | 0.00 | 0.00 | 0.00 | 82 | 1013.9 |